Location: Vancouver
(49.2500°N, 123.1330°W)
Time: 05:00:14
(UTC-07:00)

Vanguard 2 Rocket - Visible Passes

Search period start: 24 October 2014 00:00
Search period end: 02 November 2014 23:00
Orbit: 554 x 3335 km, 32.9° (Epoch: 22 October)

Date Brightness Start Highest point End Pass type
(mag) Time Alt. Az. Time Alt. Az. Time Alt. Az.
24 Oct 8.6 05:36:05 16° SSW 05:38:42 21° S 05:44:42 10° SE visible
25 Oct 8.8 04:41:06 16° SSE 04:41:06 16° SSE 04:44:48 10° SE visible
25 Oct 9.0 06:48:21 10° SW 06:53:06 20° S 06:59:43 10° SE visible
26 Oct 8.7 05:52:03 14° SSW 05:54:50 18° S 06:00:09 10° SE visible
27 Oct 8.8 04:57:05 16° S 04:57:05 16° S 05:00:38 10° SE visible
27 Oct 9.1 07:05:40 10° SW 07:09:19 15° S 07:13:56 10° SSE visible
28 Oct 8.8 06:08:02 10° SW 06:11:02 14° S 06:14:55 10° SSE visible
29 Oct 8.8 05:13:05 13° S 05:13:05 13° S 05:15:51 10° SSE visible
